Wind_Speed
12 14 17 19 19 21 21 21 21 20 21 22 24 25 24 23 22 21 20 19 18 18 18 17 17 17 15 15 14 13 12 11 10 10 10 10 11 11 11 12 12 12 12 11
13 15 17 18 18 19 21 22 22 22 22 23 25 24 24 23 22 22 21 20 19 19 19 19 18 18 17 16 15 14 13 13 12 11 10 10 10 11 11 11 12 12 12 12
15 16 18 18 17 19 21 22 23 24 24 24 24 24 24 23 22 22 21 21 21 20 20 20 20 20 19 18 17 16 15 14 13 12 11 11 11 10 11 11 12 12 12 12
19 19 19 17 20 22 23 24 25 25 25 24 23 23 24 24 23 21 21 21 21 21 21 21 21 21 21 20 19 19 17 16 15 14 13 12 12 11 11 11 12 12 12 12
23 23 23 21 23 23 24 26 27 27 26 25 23 24 26 25 24 23 23 22 22 22 22 23 23 23 23 22 21 20 19 18 17 16 15 14 13 13 12 12 12 12 12 12
25 26 27 26 28 26 27 31 32 30 28 28 26 26 28 26 25 25 25 25 24 24 24 24 25 25 25 24 24 23 22 21 20 19 18 16 15 14 14 13 12 12 12 12
28 28 29 33 32 31 32 35 35 33 32 31 30 29 29 29 28 27 28 27 27 27 27 27 27 27 27 26 26 25 24 23 22 21 20 19 18 17 16 15 14 14 13 13
32 32 34 37 36 35 36 38 38 37 36 35 34 33 32 31 31 30 30 30 29 29 29 29 29 29 29 28 28 28 27 26 25 24 23 22 21 20 19 18 17 16 16 15
34 35 38 40 40 40 40 41 41 40 39 39 38 37 36 35 34 34 33 33 32 32 32 31 31 31 31 31 31 30 29 29 28 27 26 25 24 23 22 21 20 19 18 17
39 36 38 42 44 45 44 44 44 43 42 42 41 40 39 38 37 37 36 36 35 35 34 34 34 34 34 33 33 32 32 31 31 30 29 28 27 25 24 24 23 22 21 20
43 42 42 44 47 48 48 46 46 45 45 45 45 44 43 42 41 40 39 39 38 38 37 36 36 36 36 36 35 35 34 34 33 33 32 31 30 28 27 26 26 25 24 23
46 46 48 48 49 50 51 50 49 48 48 48 48 47 47 46 45 44 43 43 42 41 40 39 39 39 38 38 38 37 37 36 35 35 34 33 32 31 30 29 28 28 27 26
50 50 51 51 51 52 53 53 53 52 51 51 51 51 50 49 48 48 47 47 46 45 44 43 42 41 40 40 40 40 39 38 38 37 36 36 35 34 33 32 31 30 30 29
53 53 53 53 54 54 55 55 55 55 54 54 54 54 53 53 52 51 50 50 50 49 48 47 46 44 42 42 42 41 41 41 40 39 38 38 37 36 35 34 33 32 32 31
55 55 56 56 57 56 57 57 57 56 56 56 56 56 55 55 54 53 53 53 53 53 52 51 50 48 46 45 44 43 43 42 42 41 40 39 38 38 37 36 35 34 33 33
57 57 57 58 58 58 59 59 58 58 58 58 58 58 57 56 56 55 54 54 54 55 55 55 53 52 50 49 47 46 45 44 43 43 42 41 40 39 38 37 36 35 35 34
57 57 58 58 59 59 59 59 59 58 58 58 58 58 58 57 56 55 55 55 55 55 55 56 56 55 54 52 51 49 48 46 45 44 43 43 42 41 40 39 38 37 36 35
58 58 59 59 59 59 59 59 58 58 57 57 57 56 56 56 56 55 55 55 55 55 56 57 57 57 56 55 54 53 51 49 48 46 45 44 43 42 41 40 39 38 37 37
58 58 59 59 59 60 59 59 58 57 55 55 54 54 54 54 54 54 54 54 54 54 55 56 57 57 57 57 57 55 54 52 50 48 47 46 45 43 42 41 40 39 38 38
58 58 59 59 59 59 58 56 55 54 53 53 53 53 52 52 52 52 52 52 52 53 53 55 56 56 57 57 57 57 56 55 53 50 49 47 46 44 43 42 41 40 39 38
58 59 59 58 57 57 55 54 54 53 52 51 51 50 49 48 48 49 49 49 48 50 51 52 54 55 55 57 57 57 56 56 55 52 50 49 47 46 44 43 42 42 41 40
57 57 57 56 56 55 54 54 53 52 51 49 49 48 47 46 45 45 46 46 46 47 48 49 50 52 53 55 56 56 56 55 55 53 52 50 49 47 46 44 43 42 42 41
55 55 55 54 54 53 52 51 51 50 48 47 46 45 45 44 42 42 42 42 44 44 46 47 48 49 51 52 53 55 55 55 54 53 52 51 50 48 47 46 45 44 43 43
53 53 52 52 51 50 48 47 47 46 44 43 42 42 43 42 40 40 40 40 41 42 43 44 45 47 49 50 51 52 54 54 53 52 51 51 50 49 48 47 46 45 44 44
51 51 50 49 48 47 46 44 43 41 40 40 39 39 40 40 39 38 39 39 39 40 42 42 43 45 47 49 50 51 53 54 53 51 50 51 50 49 48 46 45 44 44 44
48 47 46 44 43 43 42 41 39 38 38 37 37 37 37 37 37 37 37 37 36 36 38 40 41 43 45 47 49 50 51 52 52 52 51 51 50 49 48 47 46 44 44 43
44 43 42 41 40 39 39 38 38 37 37 36 35 34 34 34 34 34 34 34 34 34 34 35 36 39 41 43 45 47 48 50 51 51 51 50 50 50 49 47 46 45 45 44
Wind_Direction
277 279 282 286 291 294 294 291 289 287 283 280 277 280 285 286 285 284 282 276 270 267 263 260 257 256 258 262 267 273 280 289 299 307 316 324 330 335 341 346 349 351 351 349
293 292 290 292 294 295 295 293 290 289 286 283 283 286 287 286 283 281 279 275 270 267 263 259 255 254 255 257 262 267 272 278 287 295 303 312 320 326 333 339 343 346 348 348
300 296 295 299 298 294 294 295 293 289 287 286 287 288 287 283 279 277 276 272 268 265 261 258 254 253 253 254 257 261 265 270 276 283 290 298 306 313 321 328 334 338 341 343
300 297 296 301 293 290 290 290 288 288 289 289 288 288 284 280 277 276 274 270 267 264 261 258 254 252 252 252 254 257 260 263 268 274 280 286 293 300 308 316 323 329 333 336
301 299 298 295 289 290 291 290 289 289 290 290 289 284 281 282 280 276 272 269 266 264 261 259 256 253 251 251 251 254 256 258 262 266 271 277 282 289 296 304 312 318 323 328
300 297 297 292 289 290 289 284 288 292 292 290 285 280 280 281 278 274 271 269 266 264 261 259 257 254 251 250 249 251 253 255 257 261 265 269 274 279 286 293 300 306 312 317
298 295 292 289 291 291 285 286 292 292 290 288 285 280 278 274 273 271 269 268 267 264 262 259 257 255 253 251 249 249 251 253 255 257 260 264 268 272 277 282 288 294 300 305
295 293 287 293 292 289 287 288 289 289 288 286 284 281 278 274 271 269 267 266 265 263 261 259 257 256 254 252 251 249 250 251 253 255 257 260 263 266 270 275 280 285 290 295
290 289 289 290 289 288 287 287 287 286 285 284 282 280 277 274 271 269 266 264 264 262 260 258 257 255 254 253 252 251 250 250 252 253 255 257 259 263 266 270 274 278 283 287
290 289 286 286 287 288 288 286 286 285 283 282 280 277 274 272 270 268 266 264 262 261 258 257 256 255 254 253 252 251 251 251 251 252 254 255 257 260 264 267 270 274 277 281
288 289 285 283 285 287 288 286 285 283 282 280 278 275 273 270 268 266 265 263 262 260 258 256 254 254 253 253 252 251 251 251 251 252 253 255 256 259 261 264 267 271 274 278
289 288 287 287 286 286 286 286 285 283 281 279 277 274 272 270 268 266 264 262 260 259 257 255 254 253 252 252 252 252 251 251 251 252 253 254 256 258 260 263 266 269 272 275
288 288 288 288 287 287 288 287 286 284 281 278 276 274 272 270 268 265 263 261 259 257 256 255 254 253 252 252 251 251 251 251 251 252 252 253 255 257 259 261 264 267 270 273
289 289 288 288 288 288 288 287 286 284 281 279 277 275 273 271 268 265 262 260 258 256 254 253 252 251 251 250 250 250 250 250 250 251 252 253 254 256 258 260 263 266 269 272
288 288 289 289 289 289 288 287 286 284 281 279 277 275 273 271 269 266 263 261 258 254 252 251 250 250 249 248 249 249 249 250 250 250 251 252 253 255 257 260 262 265 268 271
289 289 290 290 289 289 289 288 287 285 283 280 278 275 274 272 270 267 265 262 259 255 252 250 249 248 247 247 247 247 248 248 249 249 250 251 252 254 256 259 261 264 267 270
290 290 290 290 290 290 290 289 288 286 284 281 278 276 273 271 270 268 265 262 259 255 252 250 248 246 245 245 245 246 246 247 248 248 249 250 252 254 256 258 260 262 265 268
291 291 291 291 291 291 290 289 287 286 284 282 279 277 274 272 270 268 265 262 259 256 253 250 248 246 244 243 243 243 244 245 246 247 248 249 251 253 255 257 259 261 264 267
292 292 292 292 292 291 290 289 287 285 284 282 279 277 275 273 270 267 265 262 259 256 253 251 248 246 244 243 242 241 242 243 244 244 246 247 249 251 254 256 258 260 264 267
292 292 292 292 292 291 290 289 287 285 284 282 280 278 276 273 270 267 264 262 259 255 252 250 248 246 244 243 241 239 239 240 241 242 243 245 248 250 253 255 257 260 263 266
292 292 292 292 292 291 289 288 287 285 284 282 281 279 277 274 271 268 264 261 257 255 252 249 247 245 243 241 240 239 237 238 239 240 241 243 245 248 250 253 256 259 262 265
293 292 292 292 291 290 289 288 287 286 285 283 281 279 277 275 271 268 264 261 257 253 251 249 247 245 242 240 239 238 236 236 237 238 239 241 243 245 248 251 254 258 261 265
292 292 291 290 290 289 289 288 287 286 285 283 280 278 277 275 272 268 264 260 258 254 251 249 246 244 242 240 239 238 236 236 235 236 238 240 242 244 247 249 252 256 260 264
290 291 290 290 289 289 290 290 288 287 285 283 280 279 277 276 273 270 267 262 259 256 252 248 246 243 241 239 237 236 236 235 235 234 236 238 240 243 246 249 252 255 259 264
291 291 291 291 290 289 289 289 288 287 285 283 282 281 279 276 274 271 268 265 262 258 253 249 246 243 240 238 236 235 234 234 234 234 235 237 239 241 244 248 251 255 260 264
291 291 291 291 291 291 289 288 287 287 286 284 284 283 280 277 275 272 270 268 263 259 254 249 245 243 240 238 235 234 233 233 232 233 234 236 238 240 243 247 251 254 259 263
291 291 292 292 291 291 290 289 288 287 287 287 286 285 281 278 276 273 272 269 264 259 255 249 244 241 238 235 233 233 233 232 232 232 233 236 237 239 241 245 249 253 258 263
Height
5816 5816 5815 5814 5814 5813 5812 5811 5811 5811 5810 5809 5807 5806 5804 5804 5803 5802 5802 5802 5802 5802 5803 5803 5804 5805 5806 5807 5807 5808 5807 5807 5806 5806 5805 5803 5802 5800 5799 5797 5795 5793 5791 5789
5813 5812 5811 5811 5810 5809 5808 5807 5806 5805 5805 5803 5801 5800 5800 5799 5799 5798 5798 5797 5797 5798 5798 5799 5800 5801 5802 5803 5803 5804 5804 5804 5804 5803 5803 5802 5800 5799 5797 5796 5794 5792 5790 5788
5809 5808 5807 5807 5806 5805 5803 5802 5801 5799 5799 5797 5797 5796 5795 5793 5793 5793 5793 5793 5793 5793 5793 5794 5795 5796 5797 5798 5799 5800 5800 5801 5801 5800 5800 5799 5798 5797 5796 5794 5793 5791 5789 5787
5804 5804 5803 5806 5802 5799 5798 5797 5795 5793 5792 5791 5792 5791 5789 5787 5787 5788 5788 5788 5788 5788 5788 5788 5789 5790 5791 5793 5794 5795 5796 5796 5797 5797 5797 5796 5795 5795 5794 5792 5791 5789 5788 5786
5799 5798 5798 5798 5795 5793 5792 5790 5788 5787 5786 5786 5786 5785 5782 5782 5782 5782 5782 5782 5782 5782 5783 5783 5784 5785 5786 5787 5788 5790 5791 5791 5792 5792 5793 5792 5792 5791 5791 5790 5789 5787 5786 5784
5794 5792 5791 5791 5788 5787 5788 5783 5780 5780 5780 5779 5779 5779 5778 5777 5776 5776 5776 5776 5776 5776 5777 5777 5778 5778 5779 5781 5782 5784 5785 5786 5787 5787 5788 5788 5788 5788 5787 5786 5785 5784 5783 5782
5787 5786 5784 5780 5780 5781 5780 5776 5773 5773 5772 5771 5771 5771 5771 5770 5769 5769 5769 5769 5769 5770 5770 5771 5771 5771 5772 5774 5775 5777 5778 5779 5780 5781 5782 5783 5783 5783 5783 5782 5782 5781 5780 5779
5780 5778 5777 5772 5772 5772 5770 5766 5765 5764 5764 5763 5762 5761 5761 5761 5761 5761 5761 5761 5761 5762 5762 5763 5764 5764 5765 5766 5768 5769 5771 5772 5773 5774 5775 5776 5777 5777 5777 5777 5777 5776 5775 5775
5773 5773 5767 5763 5761 5760 5759 5757 5755 5755 5754 5753 5752 5752 5751 5751 5751 5752 5752 5752 5753 5753 5754 5755 5756 5756 5757 5758 5759 5761 5763 5764 5766 5767 5768 5769 5770 5770 5771 5771 5771 5771 5770 5769
5762 5762 5759 5754 5750 5748 5748 5746 5745 5744 5743 5742 5741 5741 5740 5740 5740 5741 5741 5742 5742 5743 5744 5745 5746 5747 5748 5749 5750 5752 5754 5755 5757 5759 5760 5761 5762 5763 5764 5764 5764 5764 5764 5763
5750 5749 5747 5744 5739 5737 5735 5734 5732 5731 5730 5729 5728 5728 5728 5728 5728 5729 5729 5730 5731 5732 5733 5734 5736 5737 5738 5739 5741 5742 5744 5746 5748 5749 5751 5753 5754 5755 5756 5756 5757 5757 5757 5756
5738 5736 5733 5731 5727 5724 5721 5720 5718 5717 5716 5715 5713 5713 5713 5713 5714 5715 5716 5717 5718 5719 5720 5722 5724 5725 5727 5729 5730 5732 5734 5736 5738 5740 5742 5743 5745 5746 5747 5748 5748 5749 5749 5749
5724 5721 5718 5716 5713 5710 5707 5705 5703 5702 5701 5699 5698 5697 5697 5698 5699 5699 5700 5702 5703 5705 5707 5709 5710 5713 5715 5717 5718 5720 5722 5725 5727 5729 5731 5733 5735 5736 5737 5739 5739 5740 5740 5740
5708 5706 5703 5700 5697 5694 5692 5689 5687 5685 5683 5682 5681 5680 5680 5680 5681 5682 5683 5685 5687 5689 5691 5694 5696 5699 5701 5703 5705 5708 5710 5712 5715 5717 5720 5722 5724 5726 5727 5729 5730 5730 5731 5731
5693 5690 5687 5684 5681 5678 5674 5671 5669 5667 5665 5664 5662 5661 5661 5661 5662 5663 5665 5666 5668 5671 5674 5677 5680 5683 5686 5689 5692 5694 5697 5700 5702 5705 5708 5710 5713 5715 5717 5718 5719 5720 5721 5721
5677 5673 5670 5667 5663 5660 5656 5653 5650 5648 5645 5644 5643 5642 5641 5641 5642 5643 5645 5646 5648 5652 5655 5659 5663 5666 5669 5672 5676 5680 5683 5686 5689 5692 5695 5698 5700 5703 5705 5707 5709 5710 5711 5711
5659 5656 5652 5649 5645 5641 5637 5634 5631 5628 5625 5623 5622 5621 5621 5621 5622 5623 5624 5626 5628 5631 5635 5639 5644 5648 5652 5656 5660 5664 5668 5671 5675 5678 5682 5685 5688 5691 5693 5696 5697 5699 5700 5701
5641 5638 5634 5630 5626 5623 5619 5615 5611 5608 5605 5603 5602 5601 5600 5600 5601 5602 5604 5605 5608 5611 5615 5619 5623 5628 5633 5638 5642 5647 5652 5656 5660 5665 5668 5672 5675 5678 5681 5683 5685 5687 5689 5689
5624 5620 5616 5612 5607 5603 5600 5596 5592 5589 5586 5584 5582 5581 5580 5580 5580 5581 5583 5585 5588 5591 5595 5598 5602 5608 5613 5619 5624 5629 5635 5640 5645 5650 5654 5658 5661 5665 5668 5671 5673 5675 5677 5678
5606 5602 5598 5593 5589 5585 5581 5577 5574 5571 5568 5566 5564 5563 5562 5561 5561 5561 5563 5565 5568 5570 5574 5578 5583 5588 5594 5599 5604 5610 5617 5622 5628 5634 5639 5643 5648 5652 5655 5658 5661 5663 5665 5666
5588 5584 5580 5575 5571 5567 5563 5559 5556 5553 5551 5548 5546 5545 5544 5543 5543 5542 5543 5547 5550 5551 5554 5559 5563 5569 5574 5580 5585 5591 5598 5605 5611 5618 5624 5629 5634 5638 5641 5645 5648 5650 5652 5654
5570 5565 5561 5557 5553 5550 5546 5542 5539 5536 5534 5532 5530 5528 5527 5526 5526 5526 5527 5529 5532 5533 5536 5541 5545 5551 5556 5561 5567 5574 5580 5587 5594 5601 5608 5614 5619 5623 5628 5631 5634 5637 5639 5641
5552 5548 5544 5540 5536 5533 5530 5526 5523 5520 5518 5516 5514 5512 5511 5510 5510 5510 5512 5514 5514 5516 5519 5524 5529 5533 5538 5543 5550 5557 5564 5570 5578 5585 5592 5599 5604 5609 5613 5617 5621 5624 5626 5628
5536 5532 5528 5524 5520 5517 5514 5512 5508 5505 5503 5501 5500 5498 5496 5496 5496 5496 5496 5498 5499 5501 5504 5507 5512 5516 5521 5527 5533 5540 5548 5555 5562 5569 5576 5583 5589 5594 5599 5603 5607 5610 5613 5615
5520 5516 5513 5509 5505 5503 5500 5497 5494 5492 5489 5488 5486 5485 5483 5482 5482 5482 5482 5483 5484 5486 5489 5492 5496 5501 5505 5511 5518 5525 5532 5539 5547 5554 5561 5568 5574 5580 5585 5590 5594 5597 5600 5602
5506 5502 5499 5495 5492 5489 5486 5484 5481 5479 5477 5475 5474 5472 5470 5469 5469 5468 5469 5469 5471 5472 5474 5477 5481 5485 5490 5496 5503 5510 5517 5524 5532 5539 5547 5553 5560 5566 5571 5576 5580 5584 5587 5589
5492 5489 5486 5483 5480 5477 5474 5472 5469 5468 5465 5463 5462 5460 5459 5458 5457 5456 5456 5457 5458 5459 5461 5464 5467 5471 5476 5482 5489 5496 5503 5510 5518 5525 5533 5539 5546 5553 5558 5563 5567 5571 5574 5576